Date String (YYYY-MM-DD hh:mm:ss) UTC,Instrument flags,Ambient pressure (hPa),Sample flow (lpm),Bypass flow (lpm),Sample temperature (°C),Ambient temperature (°C),ASC tube jacket temperature (°C),LED temperature (°C),Box temperature (°C),Sample RH (%),Span deviation,Mass concentration (μg/m³),Mass concentration (μg/m³),Mass concentration (μg/m³)
DateTimeUTC,F1_M11,P_M11,Q1_M11,Q2_M11,T1_M11,T2_M11,T3_M11,T4_M11,T5_M11,U1_M11,ZSPAN_M11,X2_M11,X0_M11,X1_M11
2022-12-08 00:00:00,,0825.8,4.99,0.00,26.3,24.9,00.0,35.2,28.2,09.6,0000.0,0007.16,0027.92,0005.53
2022-12-08 00:01:00,,0825.8,5.01,0.00,26.3,24.9,00.0,35.2,28.1,09.7,0000.0,0007.17,0026.16,0005.48
2022-12-08 00:02:00,,0825.7,5.01,0.00,26.3,24.9,00.0,35.2,28.1,09.7,0000.0,0007.17,0026.03,0005.42
2022-12-08 00:03:00,,0825.7,5.00,0.00,26.3,24.9,00.0,35.2,28.1,09.7,0000.0,0007.14,0027.55,0005.35
2022-12-08 00:04:00,,0825.7,5.00,0.00,26.3,24.9,00.0,35.2,28.1,09.7,0000.0,0007.02,0028.03,0005.29
2022-12-08 00:05:00,,0825.7,5.00,0.00,26.3,24.9,00.0,35.2,28.1,09.7,0000.0,0006.86,0026.96,0005.22
2022-12-08 00:06:00,,0825.7,5.00,0.00,26.3,24.9,00.0,35.1,28.2,09.7,0000.0,0006.74,0027.89,0005.13
2022-12-08 00:07:00,,0825.7,5.00,0.00,26.3,24.9,00.0,35.2,28.1,09.8,0000.0,0006.61,0026.70,0005.04
2022-12-08 00:08:00,,0825.7,4.99,0.00,26.3,24.9,00.0,35.2,28.1,09.8,0000.0,0006.51,0024.78,0005.00
2022-12-08 00:09:00,,0825.6,5.00,0.00,26.3,24.9,00.0,35.2,28.1,09.8,0000.0,0006.44,0023.90,0005.00
2022-12-08 00:10:00,,0825.6,5.00,0.00,26.3,24.8,00.0,35.2,28.1,09.7,0000.0,0006.43,0022.15,0005.02
2022-12-08 00:11:00,,0825.7,5.01,0.00,26.2,24.7,00.0,35.2,28.1,09.7,0000.0,0006.44,0021.16,0005.04
2022-12-08 00:12:00,,0825.6,5.00,0.00,26.2,24.7,00.0,35.1,28.0,09.7,0000.0,0006.42,0021.23,0005.07
2022-12-08 00:13:00,,0825.6,5.00,0.00,26.2,24.6,00.0,35.1,28.0,09.6,0000.0,0006.40,0020.37,0005.07
2022-12-08 00:14:00,,0825.5,5.01,0.00,26.2,24.6,00.0,35.1,28.0,09.6,0000.0,0006.42,0018.15,0005.08
2022-12-08 00:15:00,,0825.6,5.00,0.00,26.2,24.5,00.0,35.1,28.0,09.6,0000.0,0006.40,0018.81,0005.07
2022-12-08 00:16:00,,0825.6,5.00,0.00,26.1,24.5,00.0,35.1,27.9,09.7,0000.0,0006.36,0019.21,0005.06
2022-12-08 00:17:00,,0825.6,5.00,0.00,26.1,24.4,00.0,35.1,27.9,09.7,0000.0,0006.37,0017.89,0005.07
2022-12-08 00:18:00,,0825.6,5.00,0.00,26.1,24.4,00.0,35.1,27.9,09.7,0000.0,0006.38,0017.74,0005.08
2022-12-08 00:19:00,,0825.6,5.00,0.00,26.1,24.4,00.0,35.1,27.9,09.7,0000.0,0006.36,0018.11,0005.07
2022-12-08 00:20:00,,0825.6,5.00,0.00,26.1,24.3,00.0,35.1,27.8,09.7,0000.0,0006.38,0018.67,0005.05
2022-12-08 00:21:00,,0825.6,5.00,0.00,26.1,24.4,00.0,35.0,27.8,09.7,0000.0,0006.35,0018.81,0005.00
2022-12-08 00:22:00,,0825.6,5.00,0.00,26.0,24.4,00.0,35.0,27.8,09.5,0000.0,0006.26,0018.90,0004.94
2022-12-08 00:23:00,,0825.6,5.00,0.00,26.0,24.4,00.0,35.0,27.8,09.5,0000.0,0006.20,0018.56,0004.88
2022-12-08 00:24:00,,0825.7,4.99,0.00,26.0,24.4,00.0,35.0,27.8,09.5,0000.0,0006.12,0019.63,0004.84
2022-12-08 00:25:00,,0825.6,4.99,0.00,26.0,24.4,00.0,35.0,27.8,09.4,0000.0,0006.02,0020.18,0004.81
2022-12-08 00:26:00,,0825.6,5.00,0.00,26.0,24.4,00.0,35.0,27.8,09.4,0000.0,0005.99,0018.75,0004.79
2022-12-08 00:27:00,,0825.6,5.00,0.00,26.0,24.4,00.0,35.0,27.7,09.5,0000.0,0006.02,0017.43,0004.78
2022-12-08 00:28:00,,0825.7,5.00,0.00,26.0,24.4,00.0,35.0,27.7,09.5,0000.0,0005.94,0017.09,0004.76
2022-12-08 00:29:00,,0825.6,5.00,0.00,26.0,24.4,00.0,34.9,27.7,09.5,0000.0,0005.91,0016.49,0004.75
2022-12-08 00:30:00,,0825.8,5.01,0.00,25.9,24.4,00.0,34.9,27.7,09.5,0000.0,0005.91,0016.44,0004.74
2022-12-08 00:31:00,,0825.6,5.01,0.00,25.9,24.3,00.0,34.9,27.7,09.5,0000.0,0005.88,0016.68,0004.74
2022-12-08 00:32:00,,0825.6,5.00,0.00,25.9,24.3,00.0,34.9,27.7,09.5,0000.0,0005.86,0017.00,0004.75
2022-12-08 00:33:00,,0825.6,5.00,0.00,25.9,24.3,00.0,34.9,27.7,09.5,0000.0,0005.89,0016.69,0004.78
2022-12-08 00:34:00,,0825.6,4.99,0.00,25.9,24.3,00.0,34.9,27.7,09.5,0000.0,0005.89,0017.67,0004.81
2022-12-08 00:35:00,,0825.6,4.99,0.00,25.9,24.2,00.0,34.9,27.7,09.5,0000.0,0005.93,0016.86,0004.85
2022-12-08 00:36:00,,0825.6,5.00,0.00,25.9,24.3,00.0,34.9,27.7,09.5,0000.0,0005.93,0016.00,0004.87
2022-12-08 00:37:00,,0825.6,5.00,0.00,25.9,24.3,00.0,34.9,27.6,09.4,0000.0,0005.92,0015.66,0004.88
2022-12-08 00:38:00,,0825.5,5.00,0.00,25.8,24.3,00.0,34.8,27.6,09.4,0000.0,0005.88,0015.73,0004.88
2022-12-08 00:39:00,,0825.6,5.00,0.00,25.8,24.2,00.0,34.8,27.6,09.4,0000.0,0005.85,0015.87,0004.88
2022-12-08 00:40:00,,0825.6,5.00,0.00,25.8,24.2,00.0,34.8,27.6,09.4,0000.0,0005.79,0016.02,0004.87
2022-12-08 00:41:00,,0825.5,5.00,0.00,25.8,24.2,00.0,34.8,27.6,09.4,0000.0,0005.71,0015.43,0004.86
2022-12-08 00:42:00,,0825.5,5.00,0.00,25.8,24.2,00.0,34.8,27.5,09.4,0000.0,0005.67,0014.40,0004.85
2022-12-08 00:43:00,,0825.5,5.00,0.00,25.8,24.2,00.0,34.8,27.5,09.5,0000.0,0005.66,0013.65,0004.85
2022-12-08 00:44:00,,0825.5,5.00,0.00,25.8,24.2,00.0,34.8,27.5,09.5,0000.0,0005.66,0013.75,0004.84
2022-12-08 00:45:00,,0825.5,5.00,0.00,25.7,24.1,00.0,34.7,27.5,09.5,0000.0,0005.63,0012.61,0004.83
2022-12-08 00:46:00,,0825.5,5.00,0.00,25.7,24.1,00.0,34.7,27.5,09.5,0000.0,0005.58,0012.11,0004.81
2022-12-08 00:47:00,,0825.5,5.00,0.00,25.7,24.0,00.0,34.7,27.5,09.6,0000.0,0005.60,0012.18,0004.80
2022-12-08 00:48:00,,0825.5,4.99,0.00,25.7,24.0,00.0,34.7,27.5,09.8,0000.0,0005.67,0012.13,0004.82
2022-12-08 00:49:00,,0825.5,5.00,0.00,25.7,23.9,00.0,34.7,27.4,09.8,0000.0,0005.66,0012.04,0004.83
2022-12-08 00:50:00,,0825.5,4.99,0.00,25.7,23.9,00.0,34.7,27.4,09.8,0000.0,0005.69,0012.60,0004.86
2022-12-08 00:51:00,,0825.5,5.01,0.00,25.6,23.9,00.0,34.7,27.4,09.8,0000.0,0005.74,0012.44,0004.88
2022-12-08 00:52:00,,0825.5,5.01,0.00,25.6,23.9,00.0,34.7,27.4,09.7,0000.0,0005.75,0013.09,0004.89
2022-12-08 00:53:00,,0825.5,5.00,0.00,25.6,23.8,00.0,34.6,27.4,09.7,0000.0,0005.78,0013.34,0004.88
2022-12-08 00:54:00,,0825.5,5.00,0.00,25.6,23.8,00.0,34.6,27.3,09.8,0000.0,0005.75,0012.96,0004.87
2022-12-08 00:55:00,,0825.5,5.00,0.00,25.6,23.8,00.0,34.6,27.3,09.8,0000.0,0005.68,0012.60,0004.85
2022-12-08 00:56:00,,0825.5,5.00,0.00,25.5,23.8,00.0,34.6,27.3,09.8,0000.0,0005.66,0013.45,0004.84
2022-12-08 00:57:00,,0825.5,5.00,0.00,25.5,23.8,00.0,34.6,27.3,09.7,0000.0,0005.65,0013.74,0004.84
2022-12-08 00:58:00,,0825.5,5.00,0.00,25.5,23.8,00.0,34.5,27.3,09.7,0000.0,0005.64,0014.61,0004.81
2022-12-08 00:59:00,,0825.5,5.01,0.00,25.5,23.8,00.0,34.5,27.2,09.8,0000.0,0005.55,0014.44,0004.77
